Hutchinson, MN

6:58 PM CDT on June 22, 2017 (GMT -0500)
Hutchinson Municipal-Butler

Weather History for KHCD - November, 2013

Change the Weather History Date:

Saturday, November 23, 2013

  Actual Average Record
Temperature  
Mean Temperature 10 °F -  
Max Temperature 17 °F 33 °F 53 °F (2006)
Min Temperature 2 °F 19 °F -8 °F (1985)
Degree Days  
Heating Degree Days 56    
Moisture  
Dew Point 1 °F    
Average Humidity 71    
Maximum Humidity 85    
Minimum Humidity 53    
Precipitation  
Precipitation 0.00 in - - ()
Sea Level Pressure  
Sea Level Pressure 30.77 in    
Wind  
Wind Speed 11 mph (NW)    
Max Wind Speed 16 mph    
Max Gust Speed 24 mph    
Visibility 10 miles    
Events      
Averages and records for this station are not official NWS values.
T = Trace of Precipitation, MM = Missing Value Source: NWS Daily Summary

Daily Weather History Graph

Daily Weather History Graph

Search for Another Location

Airport or City:

Trip Planner

Search our weather history database for the weather conditions in past years. The results will help you decide how hot, cold, wet, or windy it might be!

Date:

Astronomy

Nov. 23, 2013 Rise Set
Actual Time 7:25 AM CST 4:42 PM CST
Civil Twilight 6:53 AM CST 5:14 PM CST
Nautical Twilight 6:17 AM CST 5:50 PM CST
Astronomical Twilight 5:42 AM CST 6:25 PM CST
Moon 10:17 PM CST (11/23) 11:37 AM CST (11/23)
Length of Visible Light 10h 21m
Length of Day
9h 16m
Waning Gibbous, 69% of the Moon is Illuminated
Nov 23
Waning Gibbous
Nov 25
Last Quarter
Dec 2
New
Dec 9
First Quarter
Dec 17
Full

Hourly Weather History & Observations

Time (CST) Temp. Windchill Dew Point Humidity Pressure Visibility Wind Dir Wind Speed Gust Speed Precip Events Conditions
12:13 AM 9.3 °F -6.8 °F 2.5 °F 74% 30.68 in 10.0 mi NNW 13.8 mph 20.7 mph N/A   Clear
12:33 AM 9.1 °F -8.2 °F 2.7 °F 75% 30.68 in 10.0 mi NNW 16.1 mph 24.2 mph N/A   Clear
12:53 AM 8.6 °F -8.9 °F 2.3 °F 76% 30.68 in 10.0 mi NW 16.1 mph - N/A   Clear
1:13 AM 8.2 °F -8.8 °F 2.3 °F 77% 30.68 in 10.0 mi NW 15.0 mph - N/A   Clear
1:33 AM 8.2 °F -5.1 °F 2.3 °F 77% 30.70 in 10.0 mi NNW 9.2 mph - N/A   Clear
1:53 AM 7.7 °F -6.6 °F 2.3 °F 79% 30.70 in 10.0 mi NW 10.4 mph - N/A   Clear
2:13 AM 7.7 °F -8.2 °F 2.3 °F 79% 30.71 in 10.0 mi NNW 12.7 mph - N/A   Clear
2:34 AM 7.3 °F -8.6 °F 2.1 °F 79% 30.72 in 10.0 mi NW 12.7 mph - N/A   Clear
2:53 AM 7.3 °F -7.9 °F 2.1 °F 79% 30.72 in 10.0 mi NNW 11.5 mph 19.6 mph N/A   Clear
3:13 AM 7.0 °F -9.1 °F 2.1 °F 80% 30.72 in 10.0 mi NW 12.7 mph 16.1 mph N/A   Clear
3:33 AM 6.8 °F -9.3 °F 2.1 °F 81% 30.73 in 10.0 mi NW 12.7 mph - N/A   Clear
3:53 AM 6.4 °F -9.8 °F 2.1 °F 82% 30.73 in 10.0 mi NW 12.7 mph 16.1 mph N/A   Clear
4:13 AM 6.4 °F -10.5 °F 1.9 °F 82% 30.74 in 10.0 mi NW 13.8 mph 17.3 mph N/A   Clear
4:33 AM 6.4 °F -9.0 °F 1.9 °F 82% 30.75 in 10.0 mi NNW 11.5 mph - N/A   Clear
4:53 AM 6.1 °F -9.5 °F 1.9 °F 83% 30.75 in 10.0 mi NNW 11.5 mph - N/A   Clear
5:13 AM 6.3 °F -10.7 °F 1.9 °F 82% 30.76 in 10.0 mi NNW 13.8 mph - N/A   Clear
5:34 AM 5.7 °F -9.1 °F 1.8 °F 84% 30.77 in 10.0 mi NW 10.4 mph - N/A   Clear
5:53 AM 5.5 °F -8.4 °F 1.4 °F 83% 30.78 in 10.0 mi NW 9.2 mph - N/A   Clear
6:13 AM 5.4 °F -10.4 °F 1.2 °F 83% 30.79 in 10.0 mi NW 11.5 mph - N/A   Clear
6:33 AM 5.4 °F -10.4 °F 1.0 °F 82% 30.79 in 10.0 mi NW 11.5 mph - N/A   Clear
6:54 AM 4.8 °F -7.1 °F 0.9 °F 84% 30.81 in 10.0 mi WNW 6.9 mph - N/A   Clear
7:13 AM 4.5 °F -8.7 °F 0.5 °F 84% 30.81 in 10.0 mi WNW 8.1 mph - N/A   Clear
7:33 AM 4.5 °F -9.8 °F 0.5 °F 84% 30.82 in 10.0 mi WNW 9.2 mph - N/A   Clear
7:54 AM 4.6 °F -9.5 °F 0.5 °F 83% 30.82 in 10.0 mi NW 9.2 mph - N/A   Clear
8:13 AM 5.5 °F -10.2 °F 1.2 °F 82% 30.83 in 10.0 mi NW 11.5 mph - N/A   Clear
8:33 AM 6.3 °F -9.2 °F 1.4 °F 80% 30.84 in 10.0 mi NW 11.5 mph - N/A   Clear
8:53 AM 7.5 °F -7.7 °F 2.3 °F 79% 30.85 in 10.0 mi NW 11.5 mph - N/A   Clear
9:13 AM 8.2 °F -8.2 °F 2.7 °F 78% 30.85 in 10.0 mi NW 13.8 mph - N/A   Clear
9:34 AM 9.1 °F -4.9 °F 3.0 °F 76% 30.84 in 10.0 mi NW 10.4 mph - N/A   Clear
9:53 AM 10.4 °F -3.3 °F 3.6 °F 74% 30.85 in 10.0 mi WNW 10.4 mph - N/A   Clear
10:14 AM 11.8 °F -1.5 °F 3.7 °F 70% 30.85 in 10.0 mi WNW 10.4 mph - N/A   Clear
10:33 AM 12.9 °F -1.6 °F 3.7 °F 67% 30.84 in 10.0 mi NW 12.7 mph 16.1 mph N/A   Clear
10:53 AM 13.3 °F -0.5 °F 2.5 °F 62% 30.84 in 10.0 mi NW 11.5 mph - N/A   Clear
11:13 AM 13.8 °F 0.2 °F 1.8 °F 59% 30.84 in 10.0 mi NNW 11.5 mph 17.3 mph N/A   Clear
11:33 AM 15.1 °F 1.1 °F 2.3 °F 57% 30.83 in 10.0 mi NW 12.7 mph 16.1 mph N/A   Clear
11:53 AM 15.8 °F 2.1 °F 2.7 °F 56% 30.83 in 10.0 mi NW 12.7 mph - N/A   Clear
12:13 PM 16.0 °F 1.1 °F 2.7 °F 56% 30.82 in 10.0 mi WNW 15.0 mph 19.6 mph N/A   Clear
12:33 PM 16.5 °F 4.3 °F 2.5 °F 54% 30.82 in 10.0 mi NW 10.4 mph 17.3 mph N/A   Clear
12:53 PM 17.1 °F 6.6 °F 2.5 °F 53% 30.81 in 10.0 mi WNW 8.1 mph 19.6 mph N/A   Clear
1:13 PM 17.6 °F 3.7 °F 3.0 °F 53% 30.80 in 10.0 mi NNW 13.8 mph 18.4 mph N/A   Clear
1:33 PM 17.6 °F 5.0 °F 2.8 °F 53% 30.80 in 10.0 mi NW 11.5 mph - N/A   Clear
1:54 PM 17.6 °F 4.3 °F 3.0 °F 53% 30.80 in 10.0 mi WNW 12.7 mph 17.3 mph N/A   Clear
2:13 PM 17.6 °F 5.7 °F 3.7 °F 55% 30.79 in 10.0 mi WNW 10.4 mph - N/A   Clear
2:33 PM 17.4 °F 5.4 °F 3.0 °F 53% 30.79 in 10.0 mi WNW 10.4 mph - N/A   Clear
2:53 PM 17.2 °F 6.0 °F 2.7 °F 53% 30.78 in 10.0 mi WNW 9.2 mph - N/A   Clear
3:13 PM 17.1 °F 5.0 °F 2.5 °F 53% 30.78 in 10.0 mi WNW 10.4 mph - N/A   Clear
3:33 PM 16.7 °F 5.3 °F 2.1 °F 53% 30.78 in 10.0 mi WNW 9.2 mph - N/A   Clear
3:53 PM 16.3 °F 2.7 °F 2.1 °F 54% 30.78 in 10.0 mi West 12.7 mph - N/A   Clear
4:14 PM 15.6 °F 4.9 °F 1.8 °F 54% 30.78 in 10.0 mi WNW 8.1 mph - N/A   Clear
4:33 PM 14.5 °F 4.6 °F 1.4 °F 56% 30.78 in 10.0 mi WNW 6.9 mph - N/A   Clear
4:53 PM 13.8 °F 1.8 °F 1.2 °F 57% 30.77 in 10.0 mi West 9.2 mph - N/A   Clear
5:13 PM 12.9 °F 2.6 °F 0.9 °F 59% 30.77 in 10.0 mi WNW 6.9 mph - N/A   Clear
5:33 PM 12.0 °F 4.1 °F 0.5 °F 60% 30.76 in 10.0 mi WNW 4.6 mph - N/A   Clear
5:53 PM 11.1 °F 4.9 °F 0.5 °F 62% 30.76 in 10.0 mi WNW 3.5 mph - N/A   Clear
6:13 PM 10.8 °F 4.5 °F 0.3 °F 63% 30.76 in 10.0 mi West 3.5 mph - N/A   Clear
6:33 PM 7.2 °F -1.5 °F -1.1 °F 69% 30.76 in 10.0 mi WSW 4.6 mph - N/A   Clear
6:53 PM 6.4 °F -0.5 °F -0.9 °F 72% 30.76 in 10.0 mi WSW 3.5 mph - N/A   Clear
7:13 PM 7.9 °F -3.5 °F -0.6 °F 68% 30.75 in 10.0 mi West 6.9 mph - N/A   Clear
7:33 PM 8.2 °F -0.3 °F -0.0 °F 69% 30.74 in 10.0 mi West 4.6 mph - N/A   Clear
7:53 PM 6.3 °F -0.7 °F -0.4 °F 74% 30.74 in 10.0 mi West 3.5 mph - N/A   Clear
8:14 PM 7.7 °F -0.9 °F 0.5 °F 72% 30.74 in 10.0 mi WNW 4.6 mph - N/A   Clear
8:33 PM 7.5 °F -1.1 °F 0.1 °F 72% 30.73 in 10.0 mi WNW 4.6 mph - N/A   Clear
8:53 PM 5.9 °F -1.1 °F -0.2 °F 76% 30.72 in 10.0 mi NNW 3.5 mph - N/A   Clear
9:13 PM 6.3 °F - 0.1 °F 76% 30.72 in 10.0 mi Calm Calm - N/A   Clear
9:33 PM 3.9 °F - -1.1 °F 80% 30.72 in 10.0 mi Calm Calm - N/A   Clear
9:53 PM 3.6 °F - -0.9 °F 82% 30.72 in 10.0 mi Calm Calm - N/A   Clear
10:13 PM 2.8 °F - -1.3 °F 83% 30.71 in 10.0 mi Calm Calm - N/A   Clear
10:33 PM 2.5 °F - -1.1 °F 85% 30.70 in 10.0 mi Calm Calm - N/A   Clear
10:53 PM 2.8 °F - -1.1 °F 84% 30.70 in 10.0 mi Calm Calm - N/A   Clear
11:13 PM 3.9 °F - -0.2 °F 83% 30.70 in 10.0 mi Calm Calm - N/A   Clear
11:33 PM 3.4 °F - -0.4 °F 84% 30.68 in 10.0 mi Calm Calm - N/A   Clear
11:54 PM 2.8 °F - -0.8 °F 85% 30.68 in 10.0 mi Calm Calm - N/A   Clear